Weather History for Tillamook, OR

Change the Weather History Date:

Friday, December 7, 2012

  Actual Average (KMMV) Record (KMMV)
Temperature  
Mean Temperature 46 °F 40 °F  
Max Temperature 51 °F 46 °F 63 °F (1925)
Min Temperature 42 °F 35 °F 9 °F (1972)
Degree Days  
Heating Degree Days 18 24  
Month to date heating degree days 166  
Since 1 July heating degree days 1388  
Cooling Degree Days 0 0  
Month to date cooling degree days 0  
Year to date cooling degree days 215  
Moisture  
Dew Point 44 °F    
Average Humidity 88    
Maximum Humidity 100    
Minimum Humidity 76    
Precipitation  
Precipitation 0.38 in 0.20 in 2.16 in (1896)
Month to date precipitation 1.35  
Year to date precipitation 35.00  
Snow  
Snow 0.00 in - - ()
Month to date snowfall  
Since 1 July snowfall  
Snow Depth -    
Sea Level Pressure  
Sea Level Pressure 30.18 in    
Wind  
Wind Speed 5 mph (SSW)    
Max Wind Speed 14 mph    
Max Gust Speed 20 mph    
Visibility 9 miles    
Events Rain    
T = Trace of Precipitation, MM = Missing Value Source: NWS Daily Summary

Daily Weather History Graph

Daily Weather History Graph

Search for Another Location

Airport:

Trip Planner

Search our weather history database for the weather conditions in past years. The results will help you decide how hot, cold, wet, or windy it might be!

Date:

Astronomy

Dec. 07, 2012 Rise Set
Actual Time 8:41 AM MST 5:32 PM MST
Civil Twilight 8:07 AM MST 6:05 PM MST
Nautical Twilight 7:30 AM MST 6:43 PM MST
Astronomical Twilight 6:54 AM MST 7:19 PM MST
Moon 1:51 AM MST (12/7) 1:46 PM MST (12/7)
Length of Visible Light 9h 58m
Length of Day
8h 50m
Last Quarter, 38% of the Moon is Illuminated
Dec 7
Last Quarter
Dec 13
New
Dec 19
First Quarter
Dec 28
Full
Jan 4
Last Quarter

Hourly Weather History & Observations

Time (MST) Temp. Windchill Dew Point Humidity Pressure Visibility Wind Dir Wind Speed Gust Speed Precip Events Conditions
12:15 AM 46.4 °F 45.2 °F 44.6 °F 93% 30.21 in 10.0 mi SSE 3.5 mph - N/A   Mostly Cloudy
12:35 AM 46.4 °F 43.5 °F 44.6 °F 93% 30.21 in 10.0 mi South 5.8 mph - N/A   Overcast
12:55 AM 46.4 °F 44.3 °F 44.6 °F 93% 30.21 in 10.0 mi South 4.6 mph - N/A   Overcast
1:15 AM 46.4 °F 44.3 °F 44.6 °F 93% 30.21 in 10.0 mi South 4.6 mph - N/A   Overcast
1:35 AM 46.4 °F 44.3 °F 44.6 °F 93% 30.21 in 10.0 mi South 4.6 mph - N/A   Overcast
1:55 AM 46.4 °F 45.2 °F 46.4 °F 100% 30.20 in 10.0 mi SSE 3.5 mph - N/A   Overcast
2:15 AM 46.4 °F 45.2 °F 46.4 °F 100% 30.20 in 10.0 mi SSE 3.5 mph - N/A   Overcast
2:35 AM 46.4 °F - 46.4 °F 100% 30.20 in 10.0 mi Calm Calm - N/A   Overcast
2:55 AM 46.4 °F - 44.6 °F 93% 30.19 in 10.0 mi Calm Calm - N/A   Overcast
3:15 AM 46.4 °F 45.2 °F 44.6 °F 93% 30.19 in 10.0 mi South 3.5 mph - N/A   Overcast
3:35 AM 46.4 °F 44.3 °F 44.6 °F 93% 30.19 in 10.0 mi SSW 4.6 mph - N/A   Overcast
3:55 AM 46.4 °F 44.3 °F 44.6 °F 93% 30.19 in 10.0 mi SSE 4.6 mph - N/A   Overcast
4:15 AM 46.4 °F 44.3 °F 44.6 °F 93% 30.19 in 10.0 mi SSE 4.6 mph - N/A   Overcast
4:35 AM 46.4 °F 44.3 °F 44.6 °F 93% 30.18 in 10.0 mi SSE 4.6 mph - N/A   Overcast
4:55 AM 46.4 °F 44.3 °F 46.4 °F 100% 30.18 in 10.0 mi SSE 4.6 mph - N/A   Overcast
5:15 AM 46.4 °F 43.5 °F 46.4 °F 100% 30.17 in 10.0 mi SSE 5.8 mph - N/A   Overcast
5:35 AM 46.4 °F 43.5 °F 46.4 °F 100% 30.17 in 7.0 mi SSE 5.8 mph - N/A   Heavy Drizzle
5:55 AM 46.4 °F 44.3 °F 44.6 °F 93% 30.17 in 10.0 mi South 4.6 mph - N/A   Overcast
6:15 AM 48.2 °F - 46.4 °F 93% 30.17 in 10.0 mi South 5.8 mph - N/A   Overcast
6:35 AM 48.2 °F - 44.6 °F 87% 30.16 in 10.0 mi South 6.9 mph - N/A   Overcast
6:55 AM 48.2 °F - 44.6 °F 87% 30.16 in 10.0 mi South 6.9 mph - N/A   Overcast
7:15 AM 48.2 °F - 44.6 °F 87% 30.16 in 10.0 mi SSE 6.9 mph - N/A   Overcast
7:35 AM 48.2 °F - 44.6 °F 87% 30.15 in 10.0 mi SSE 5.8 mph - N/A   Overcast
7:55 AM 48.2 °F - 46.4 °F 93% 30.16 in 5.0 mi SW 8.1 mph - 0.05 in Rain Rain
8:15 AM 48.2 °F - 44.6 °F 87% 30.15 in 10.0 mi South 3.5 mph - 0.02 in   Overcast
8:35 AM 48.2 °F - 44.6 °F 87% 30.16 in 10.0 mi SW 6.9 mph - 0.02 in   Overcast
8:55 AM 48.2 °F - 44.6 °F 87% 30.16 in 10.0 mi South 4.6 mph - 0.02 in   Overcast
9:15 AM 48.2 °F - 44.6 °F 87% 30.16 in 10.0 mi South 5.8 mph - N/A   Overcast
9:35 AM 48.2 °F - 44.6 °F 87% 30.16 in 7.0 mi SSW 5.8 mph - N/A Rain Rain
9:55 AM 48.2 °F - 44.6 °F 87% 30.16 in 5.0 mi SW 6.9 mph 17.3 mph 0.05 in Rain Rain
10:15 AM 48.2 °F - 46.4 °F 93% 30.16 in 7.0 mi Calm Calm - N/A   Overcast
10:35 AM 48.2 °F - 46.4 °F 93% 30.16 in 10.0 mi SSW 4.6 mph - 0.02 in Rain Light Rain
10:55 AM 50.0 °F - 46.4 °F 87% 30.16 in 7.0 mi West 3.5 mph - 0.04 in Rain Light Rain
11:15 AM 50.0 °F - 46.4 °F 87% 30.16 in 10.0 mi SW 8.1 mph - N/A   Overcast
11:35 AM 50.0 °F - 46.4 °F 87% 30.16 in 10.0 mi SW 9.2 mph - N/A   Overcast
11:55 AM 51.8 °F - 46.4 °F 82% 30.16 in 10.0 mi SSW 8.1 mph - N/A   Overcast
12:15 PM 51.8 °F - 46.4 °F 82% 30.15 in 10.0 mi SW 11.5 mph 17.3 mph N/A   Drizzle
12:35 PM 50.0 °F - 46.4 °F 87% 30.15 in 5.0 mi WSW 13.8 mph 19.6 mph 0.01 in Rain Rain
12:55 PM 50.0 °F - 46.4 °F 87% 30.15 in 3.0 mi West 11.5 mph - 0.08 in Rain Rain
1:15 PM 50.0 °F - 46.4 °F 87% 30.15 in 10.0 mi WSW 10.4 mph - 0.06 in   Overcast
1:35 PM 50.0 °F - 46.4 °F 87% 30.16 in 10.0 mi WSW 8.1 mph - 0.06 in   Overcast
1:55 PM 50.0 °F - 46.4 °F 87% 30.15 in 10.0 mi WSW 9.2 mph - 0.06 in   Overcast
2:15 PM 51.8 °F - 46.4 °F 82% 30.15 in 10.0 mi WSW 6.9 mph - N/A   Overcast
2:35 PM 51.8 °F - 46.4 °F 82% 30.15 in 10.0 mi West 8.1 mph - N/A   Overcast
2:55 PM 51.8 °F - 44.6 °F 76% 30.14 in 7.0 mi West 8.1 mph - N/A   Overcast
3:15 PM 51.8 °F - 46.4 °F 82% 30.15 in 10.0 mi West 9.2 mph - N/A Rain Light Rain
3:35 PM 50.0 °F - 44.6 °F 82% 30.15 in 4.0 mi West 12.7 mph 16.1 mph 0.03 in Rain Light Rain
3:55 PM 50.0 °F - 44.6 °F 82% 30.16 in 10.0 mi WNW 11.5 mph 16.1 mph 0.03 in   Overcast
4:15 PM 48.2 °F - 44.6 °F 87% 30.17 in 10.0 mi WNW 10.4 mph 16.1 mph N/A   Overcast
4:35 PM 48.2 °F - 42.8 °F 82% 30.17 in 10.0 mi WSW 5.8 mph - N/A   Overcast
4:55 PM 48.2 °F - 42.8 °F 82% 30.18 in 10.0 mi WNW 11.5 mph 17.3 mph N/A Rain Light Rain
5:15 PM 48.2 °F - 42.8 °F 82% 30.19 in 5.0 mi NW 5.8 mph - N/A Rain Light Rain
5:35 PM 46.4 °F - 42.8 °F 87% 30.18 in 7.0 mi Calm Calm - N/A   Overcast
6:15 PM 46.4 °F 45.2 °F 41.0 °F 81% 30.19 in 10.0 mi WSW 3.5 mph - N/A   Overcast
6:35 PM 46.4 °F 44.3 °F 41.0 °F 81% 30.19 in 10.0 mi West 4.6 mph - N/A   Mostly Cloudy
6:55 PM 46.4 °F 43.5 °F 41.0 °F 81% 30.20 in 10.0 mi WNW 5.8 mph - N/A   Mostly Cloudy
7:35 PM 46.4 °F 45.2 °F 39.2 °F 76% 30.21 in 10.0 mi WSW 3.5 mph - N/A   Mostly Cloudy
7:55 PM 46.4 °F 44.3 °F 39.2 °F 76% 30.21 in 10.0 mi WSW 4.6 mph - N/A   Overcast
8:15 PM 44.6 °F 42.2 °F 41.0 °F 87% 30.21 in 10.0 mi WSW 4.6 mph - N/A   Overcast
8:35 PM 46.4 °F 45.2 °F 39.2 °F 76% 30.22 in 10.0 mi WSW 3.5 mph - N/A   Overcast
8:55 PM 46.4 °F - 41.0 °F 81% 30.23 in 10.0 mi Calm Calm - N/A   Drizzle
9:15 PM 44.6 °F 43.1 °F 41.0 °F 87% 30.23 in 10.0 mi SSE 3.5 mph - N/A   Mostly Cloudy
9:35 PM 44.6 °F 41.4 °F 41.0 °F 87% 30.22 in 10.0 mi SSE 5.8 mph - N/A   Mostly Cloudy
9:55 PM 44.6 °F 43.1 °F 41.0 °F 87% 30.23 in 10.0 mi SE 3.5 mph - N/A   Mostly Cloudy
10:15 PM 44.6 °F - 41.0 °F 87% 30.24 in 10.0 mi Calm Calm - N/A   Overcast
10:35 PM 42.8 °F 40.1 °F 41.0 °F 93% 30.24 in 10.0 mi SE 4.6 mph - N/A   Mostly Cloudy
10:55 PM 44.6 °F - 42.8 °F 93% 30.25 in 3.0 mi Calm Calm - 0.02 in Rain Rain
11:15 PM 42.8 °F - 41.0 °F 93% 30.24 in 5.0 mi Calm Calm - 0.03 in Rain Light Rain
11:35 PM 44.6 °F 41.4 °F 41.0 °F 87% 30.24 in 10.0 mi South 5.8 mph - 0.03 in   Overcast
11:55 PM 42.8 °F 39.3 °F 41.0 °F 93% 30.24 in 10.0 mi SE 5.8 mph - 0.03 in   Overcast